Telfer, Australia

2:30 AM AWST on November 24, 2017 (GMT +0800)
Telfer

Weather History for YTEF - October, 2011

Change the Weather History Date:

Monday, October 17, 2011

  Actual Average Record
Temperature  
Mean Temperature 86 °F -  
Max Temperature 101 °F - - ()
Min Temperature 72 °F - - ()
Cooling Degree Days 22    
Growing Degree Days 36 (Base 50)    
Moisture  
Dew Point 51 °F    
Average Humidity 28    
Maximum Humidity 51    
Minimum Humidity 7    
Precipitation  
Precipitation 0.00 in - - ()
Sea Level Pressure  
Sea Level Pressure 29.88 in    
Wind  
Wind Speed 9 mph ()    
Max Wind Speed 20 mph    
Max Gust Speed 29 mph    
T = Trace of Precipitation, MM = Missing Value Source: Averaged Metar Reports

Daily Weather History Graph

Daily Weather History Graph

Search for Another Location

Airport or City:

Trip Planner

Search our weather history database for the weather conditions in past years. The results will help you decide how hot, cold, wet, or windy it might be!

Date:

Astronomy

Oct. 17, 2011 Rise Set
Actual Time 5:18 AM AWST 5:54 PM AWST
Civil Twilight 4:55 AM AWST 6:17 PM AWST
Nautical Twilight 4:29 AM AWST 6:44 PM AWST
Astronomical Twilight 4:02 AM AWST 7:11 PM AWST
Moon 10:21 PM AWST (10/17) 8:36 AM AWST (10/17)
Length of Visible Light 13h 21m
Length of Day
12h 36m
Waning Gibbous, 78% of the Moon is Illuminated
Oct 17
Waning Gibbous
Oct 20
Last Quarter
Oct 27
New
Nov 3
First Quarter
Nov 11
Full

Hourly Weather History & Observations

Time (AWST) Temp. Heat Index Dew Point Humidity Pressure Visibility Wind Dir Wind Speed Gust Speed Precip Events Conditions
12:00 AM 81 °F - 33 °F 10% 29.83 in - East 10.4 mph - -  
12:00 AM 80.6 °F - 33.8 °F 18% 29.86 in - East 10.4 mph - N/A   Unknown
1:00 AM 75.2 °F - 37.4 °F 25% 29.86 in - East 5.8 mph - N/A   Unknown
2:00 AM 77 °F - 38 °F 15% 29.83 in - NNW 3.5 mph - -  
3:00 AM 76 °F - 43 °F 20% 29.85 in - East 3.5 mph - -  
3:00 AM 75.2 °F - 42.8 °F 31% 29.89 in - East 3.5 mph - N/A   Unknown
4:00 AM 75.2 °F - 42.8 °F 31% 29.89 in - SE 6.9 mph - N/A   Unknown
5:00 AM 74 °F - 46 °F 26% 29.86 in - SE 8.1 mph - -  
5:00 AM 75.2 °F - 46.4 °F 36% 29.92 in - SE 8.1 mph - N/A   Unknown
6:00 AM 75 °F - 48 °F 27% 29.88 in - ESE 5.8 mph - -  
6:00 AM 75.2 °F - 48.2 °F 38% 29.92 in - ESE 5.8 mph - N/A   Unknown
7:00 AM 80.6 °F - 50.0 °F 34% 29.95 in - East 10.4 mph - N/A   Unknown
8:00 AM 87 °F - 56 °F 24% 29.91 in - NNE 13.8 mph - -  
8:00 AM 86.0 °F 84.5 °F 55.4 °F 35% 29.95 in - NNE 13.8 mph - N/A   Unknown
9:00 AM 89 °F - 58 °F 25% 29.91 in - NE 19.6 mph - -  
9:00 AM 89.6 °F 88.1 °F 57.2 °F 33% 29.95 in - NE 19.6 mph - N/A   Unknown
10:00 AM 91.4 °F 89.9 °F 57.2 °F 31% 29.95 in - NE 16.1 mph - N/A   Unknown
11:00 AM 95 °F - 58 °F 19% 29.88 in - NNE 15.0 mph - -  
11:00 AM 95.0 °F 93.7 °F 57.2 °F 28% 29.92 in - NNE 15.0 mph - N/A   Unknown
12:00 PM 98 °F - 56 °F 16% 29.85 in - NE 13.8 mph - -  
12:00 PM 96.8 °F 95.1 °F 55.4 °F 25% 29.89 in - NE 13.8 mph - N/A   Unknown
1:00 PM 100.4 °F - 51.8 °F 20% 29.86 in - NNE 13.8 mph - N/A   Unknown
2:00 PM 99 °F - 41 °F 7% 29.78 in - NNE 11.5 mph - -  
2:00 PM 98.6 °F - 41.0 °F 14% 29.83 in - NNE 11.5 mph - N/A   Unknown
3:00 PM 97 °F - 47 °F 10% 29.77 in - ENE 6.9 mph - -  
3:00 PM 96.8 °F - 46.4 °F 18% 29.80 in - ENE 6.9 mph - N/A   Unknown
4:00 PM 95.0 °F - 50.0 °F 22% 29.83 in - NW 6.9 mph - N/A   Unknown
4:33 PM 89.6 °F 87.3 °F 53.6 °F 29% 29.83 in - East 17.3 mph - N/A   Unknown
5:00 PM 87 °F - 55 °F 24% 29.80 in - ENE 15.0 mph - -  
5:00 PM 87.8 °F 86.1 °F 55.4 °F 33% 29.86 in - ENE 15.0 mph - N/A   Unknown
6:00 PM 85 °F - 54 °F 24% 29.81 in - ENE 18.4 mph - -  
6:00 PM 84.2 °F 82.8 °F 53.6 °F 35% 29.86 in - ENE 18.4 mph - N/A   Unknown
7:00 PM 82.4 °F 81.7 °F 55.4 °F 39% 29.89 in - NNE 10.4 mph - N/A   Unknown
7:08 PM 84.2 °F 83.0 °F 55.4 °F 37% 29.92 in - NNW 17.3 mph 28.8 mph N/A   Unknown
8:00 PM 80 °F - 58 °F 36% 29.88 in - NNW 10.4 mph - -  
8:00 PM 80.6 °F 80.8 °F 57.2 °F 45% 29.92 in - NNW 10.4 mph - N/A   Unknown
9:00 PM 80 °F - 56 °F 34% 29.87 in - North 8.1 mph - -  
9:00 PM 80.6 °F 80.8 °F 57.2 °F 45% 29.92 in - North 8.1 mph - N/A   Unknown
10:00 PM 80.6 °F 81.1 °F 59.0 °F 48% 29.92 in - North 8.1 mph - N/A   Unknown
11:00 PM 79 °F - 59 °F 40% 29.87 in - WNW 12.7 mph - -  
11:00 PM 78.8 °F - 59.0 °F 51% 29.92 in - WNW 12.7 mph - N/A   Unknown